EW0608 Weather Reports


time (UTC)temp
F
wind
direction
speed
knots
gust
knots
rain 1hr
in
rain 24hr
in
rain mn
in
humidity
%
barometer
mb
20260510214505 67 319 0.9 3.5 0.00 0.00 0.00 77 1013.6
20260510214401 68 319 0.9 3.5 0.00 0.00 0.00 76 1013.9
20260510213853 69 321 1.7 3.5 0.00 0.00 0.00 75 1013.9
20260510213404 68 65 0.0 3.5 0.00 0.00 0.00 77 1013.8
20260510213057 68 349 0.0 3.5 0.00 0.00 0.00 78 1013.5
20260510212856 68 257 1.7 2.6 0.00 0.00 0.00 79 1013.9
20260510212347 69 325 0.9 3.5 0.00 0.00 0.00 80 1013.7
20260510211900 68 306 1.7 3.5 0.00 0.00 0.00 79 1013.6
20260510211512 68 325 0.0 3.5 0.00 0.00 0.00 79 1013.3
20260510211411 69 181 0.0 2.6 0.00 0.00 0.00 80 1013.5
20260510210842 69 46 1.7 3.5 0.00 0.00 0.00 80 1013.5
20260510210357 68 102 1.7 3.5 0.00 0.00 0.00 81 1013.6
20260510210045 67 87 2.6 3.5 0.00 0.00 0.00 84 1013.3
20260510205845 67 58 0.0 0.0 0.00 0.00 0.00 86 1013.4
20260510205357 66 66 0.0 0.0 0.00 0.00 0.00 85 1013.7
20260510204849 66 66 0.0 0.9 0.00 0.00 0.00 82 1013.7
20260510204543 66 66 0.0 2.6 0.00 0.00 0.00 81 1013.4
20260510204341 67 66 0.0 2.6 0.00 0.00 0.00 82 1013.6
20260510203853 67 78 0.0 1.7 0.00 0.00 0.00 81 1013.6
20260510203346 66 78 0.9 1.7 0.00 0.00 0.00 83 1013.6
20260510203039 66 78 0.0 1.7 0.00 0.00 0.00 84 1013.3
20260510202839 66 78 0.0 1.7 0.00 0.00 0.00 86 1013.5
20260510202351 65 78 0.9 1.7 0.00 0.00 0.00 87 1013.5
20260510201843 65 5 0.0 0.0 0.00 0.00 0.00 91 1013.6
20260510201538 64 5 0.0 0.0 0.00 0.00 0.00 90 1013.3
20260510200851 65 5 0.0 3.5 0.00 0.00 0.00 88 1013.8
20260510200344 65 360 0.9 4.3 0.00 0.00 0.00 83 1013.7
20260510200053 65 325 1.7 4.3 0.00 0.00 0.00 81 1013.6
20260510195852 66 10 1.7 4.3 0.00 0.00 0.00 80 1013.9
20260510195345 67 98 0.9 3.5 0.00 0.00 0.00 74 1014.2
20260510194837 67 296 0.9 2.6 0.00 0.00 0.00 75 1013.6
20260510194551 67 26 0.0 2.6 0.00 0.00 0.00 72 1012.8
20260510194350 68 26 0.0 2.6 0.00 0.00 0.00 72 1013.0
20260510193844 68 74 0.9 3.5 0.00 0.00 0.00 71 1012.8
20260510193339 68 109 0.9 3.5 0.00 0.00 0.00 75 1012.8
20260510193054 67 209 0.0 0.0 0.00 0.00 0.00 74 1012.5
20260510192854 68 209 0.0 0.0 0.00 0.00 0.00 73 1012.9
20260510192345 68 209 0.0 0.9 0.00 0.00 0.00 73 1012.8
20260510191838 68 209 0.0 1.7 0.00 0.00 0.00 73 1012.8
20260510191557 67 209 0.0 1.7 0.00 0.00 0.00 74 1012.6
20260510191350 68 209 0.0 3.5 0.00 0.00 0.00 74 1013.0
20260510190904 68 208 0.9 3.5 0.00 0.00 0.00 71 1013.2
20260510190356 68 186 0.9 2.6 0.00 0.00 0.00 74 1013.2
20260510190052 68 246 0.9 2.6 0.00 0.00 0.00 72 1013.1
20260510185846 69 207 1.7 2.6 0.00 0.00 0.00 72 1013.3
20260510185339 68 86 0.9 2.6 0.00 0.00 0.00 79 1013.3
20260510184913 66 172 0.0 2.6 0.00 0.00 0.00 79 1013.4
20260510184544 66 172 0.9 2.6 0.00 0.00 0.00 81 1013.2
20260510184344 66 185 1.7 2.6 0.00 0.00 0.00 84 1013.4
20260510183837 65 165 0.0 1.7 0.00 0.00 0.00 88 1013.5
20260510183348 65 165 0.0 2.6 0.00 0.00 0.00 86 1013.5
20260510183043 65 165 0.9 2.6 0.00 0.00 0.00 84 1013.3
20260510182843 65 102 0.9 2.6 0.00 0.00 0.00 83 1013.5
20260510182415 65 210 0.0 1.7 0.00 0.00 0.00 81 1013.8
20260510181513 66 311 0.0 4.3 0.00 0.00 0.00 72 1013.3
20260510181412 67 313 0.9 4.3 0.00 0.00 0.00 71 1013.5
20260510180841 69 59 2.6 4.3 0.00 0.00 0.00 67 1013.5
20260510180045 71 329 1.7 3.5 0.00 0.00 0.00 59 1013.1
20260510175842 72 360 1.7 3.5 0.00 0.00 0.00 63 1013.2
20260510175355 72 351 0.9 2.6 0.00 0.00 0.00 59 1013.0
20260510174847 72 212 0.9 2.6 0.00 0.00 0.00 58 1012.9
20260510174541 72 212 1.7 2.6 0.00 0.00 0.00 54 1012.6
20260510174339 72 130 0.9 1.7 0.00 0.00 0.00 58 1012.8
20260510173852 72 130 0.0 2.6 0.00 0.00 0.00 57 1012.6
20260510173345 73 130 0.9 2.6 0.00 0.00 0.00 52 1012.5
20260510173036 72 129 0.0 2.6 0.00 0.00 0.00 53 1012.2
20260510172836 73 129 0.0 3.5 0.00 0.00 0.00 53 1012.5
20260510172348 73 119 1.7 3.5 0.00 0.00 0.00 52 1012.4
20260510171844 73 92 0.9 4.3 0.00 0.00 0.00 53 1012.5
20260510171542 73 92 0.9 4.3 0.00 0.00 0.00 53 1012.2
20260510170849 73 84 0.9 4.3 0.00 0.00 0.00 52 1012.6
20260510170341 73 88 0.9 4.3 0.00 0.00 0.00 53 1012.6
20260510170053 72 109 0.9 3.5 0.00 0.00 0.00 52 1012.4
20260510165852 73 40 1.7 3.5 0.00 0.00 0.00 52 1012.6
20260510165404 73 73 0.9 2.6 0.00 0.00 0.00 53 1012.6
20260510164854 74 72 0.9 2.6 0.00 0.00 0.00 51 1012.7
20260510164506 73 109 0.9 2.6 0.00 0.00 0.00 52 1012.6
20260510164344 74 280 0.9 2.6 0.00 0.00 0.00 52 1012.8
20260510163836 74 307 1.7 3.5 0.00 0.00 0.00 52 1012.8
20260510163348 73 236 1.7 3.5 0.00 0.00 0.00 55 1012.9
20260510163045 73 178 1.7 4.3 0.00 0.00 0.00 54 1012.7
20260510162840 74 124 0.9 4.3 0.00 0.00 0.00 54 1012.9
20260510162352 73 167 2.6 4.3 0.00 0.00 0.00 53 1013.0
20260510161905 72 161 1.7 4.3 0.00 0.00 0.00 56 1013.0
20260510161607 72 149 1.7 4.3 0.00 0.00 0.00 55 1012.9
20260510161355 72 53 0.0 2.6 0.00 0.00 0.00 55 1013.1
20260510160849 71 211 0.9 2.6 0.00 0.00 0.00 56 1013.1
20260510160340 71 69 0.9 2.6 0.00 0.00 0.00 57 1013.1
20260510160010 71 331 0.9 2.6 0.00 0.00 0.00 56 1012.9
20260510155909 71 331 0.9 4.3 0.00 0.00 0.00 56 1013.1
20260510155340 71 60 0.9 5.2 0.00 0.00 0.00 57 1013.1
20260510154913 71 161 2.6 4.3 0.00 0.00 0.00 56 1013.2
20260510154546 70 59 1.7 6.1 0.00 0.00 0.00 58 1012.9
20260510154344 71 95 0.9 6.1 0.00 0.00 0.00 57 1013.0
20260510153836 71 209 0.9 3.5 0.00 0.00 0.00 58 1013.0
20260510153348 71 50 0.9 4.3 0.00 0.00 0.00 58 1013.1
20260510153043 70 50 1.7 5.2 0.00 0.00 0.00 57 1012.9
20260510152841 70 47 2.6 5.2 0.00 0.00 0.00 58 1013.1
20260510152354 70 323 2.6 3.5 0.00 0.00 0.00 57 1013.1
20260510151846 70 71 1.7 6.1 0.00 0.00 0.00 59 1013.0
20260510151541 69 198 0.0 6.1 0.00 0.00 0.00 59 1012.9
20260510151339 70 138 0.9 6.1 0.00 0.00 0.00 60 1013.0
20260510150852 69 141 1.7 4.3 0.00 0.00 0.00 61 1013.0
20260510150346 69 327 1.7 5.2 0.00 0.00 0.00 60 1013.0
20260510150037 68 82 2.6 5.2 0.00 0.00 0.00 62 1012.8
20260510145836 69 166 0.0 2.6 0.00 0.00 0.00 64 1013.0
20260510145349 68 135 1.7 3.5 0.00 0.00 0.00 66 1013.0
20260510144842 68 156 0.9 3.5 0.00 0.00 0.00 71 1012.9
20260510144523 66 190 0.0 0.9 0.00 0.00 0.00 72 1012.8
20260510144416 66 190 0.0 0.9 0.00 0.00 0.00 75 1012.9
20260510143847 66 190 0.0 0.9 0.00 0.00 0.00 74 1012.8
20260510143346 66 190 0.0 0.9 0.00 0.00 0.00 72 1012.9
20260510143041 65 190 0.0 0.9 0.00 0.00 0.00 72 1012.8
20260510142839 65 190 0.0 0.0 0.00 0.00 0.00 72 1013.0
20260510142352 64 190 0.0 0.0 0.00 0.00 0.00 73 1013.0
20260510141844 63 190 0.0 0.9 0.00 0.00 0.00 74 1013.0
20260510141520 63 190 0.0 0.9 0.00 0.00 0.00 75 1012.9
20260510141418 63 190 0.0 0.9 0.00 0.00 0.00 76 1013.0
20260510140006 61 190 0.0 0.9 0.00 0.00 0.00 77 1012.9
20260510134504 60 190 0.0 0.9 0.00 0.00 0.00 78 1012.9
20260510133102 58 190 0.0 0.9 0.00 0.00 0.00 80 1012.9
20260510131559 56 190 0.0 1.7 0.00 0.00 0.00 82 1012.9
20260510130052 55 190 0.0 0.0 0.00 0.00 0.00 86 1013.0
20260510124546 53 190 0.0 0.0 0.00 0.00 0.00 90 1013.0
20260510123043 52 190 0.0 0.9 0.00 0.00 0.00 92 1012.9
20260510121539 50 190 0.0 0.0 0.00 0.00 0.00 96 1012.5
20260510120037 47 190 0.0 0.0 0.00 0.00 0.00 97 1012.5
20260510114536 46 190 0.0 0.9 0.00 0.00 0.00 98 1012.7
20260510113039 44 282 0.0 0.0 0.00 0.00 0.00 98 1012.6
20260510111540 43 282 0.0 0.0 0.00 0.00 0.00 98 1012.5
20260510110038 42 282 0.0 0.0 0.00 0.00 0.00 97 1012.3
20260510104530 42 282 0.0 0.0 0.00 0.00 0.00 98 1012.2
20260510103027 42 282 0.0 0.0 0.00 0.00 0.00 97 1011.9
20260510101525 42 282 0.0 0.0 0.00 0.00 0.00 97 1011.6
20260510100022 42 282 0.0 0.0 0.00 0.00 0.00 97 1011.4
20260510094519 42 282 0.0 0.0 0.00 0.00 0.00 97 1011.2
20260510093025 42 282 0.0 0.0 0.00 0.00 0.00 97 1011.0
20260510091515 43 282 0.0 0.0 0.00 0.00 0.00 97 1010.9
20260510090022 43 282 0.0 0.0 0.00 0.00 0.00 97 1010.9
20260510084517 43 282 0.0 0.0 0.00 0.00 0.00 97 1010.7
20260510083012 43 282 0.0 0.0 0.00 0.00 0.00 97 1010.7
20260510081510 43 282 0.0 0.0 0.00 0.00 0.00 97 1010.6
20260510080114 43 282 0.0 0.0 0.00 0.00 0.00 97 1010.6
20260510074507 44 282 0.0 0.0 0.00 0.00 0.00 97 1010.5
20260510073007 44 282 0.0 0.0 0.00 0.00 0.00 97 1010.7
20260510071506 44 282 0.0 0.0 0.00 0.00 0.00 97 1010.5
20260510070004 44 282 0.0 0.0 0.00 0.00 0.00 96 1010.4
20260510064502 44 282 0.0 0.0 0.00 0.00 0.00 96 1010.3
20260510063001 45 282 0.0 0.0 0.00 0.00 0.00 96 1010.3
20260510061559 45 282 0.0 0.0 0.00 0.00 0.00 96 1010.3
20260510060057 46 282 0.0 0.0 0.00 0.00 0.00 97 1010.4
20260510054555 46 282 0.0 0.0 0.00 0.00 0.00 96 1010.5
20260510053056 46 282 0.0 1.7 0.00 0.00 0.00 96 1010.5
20260510051556 46 282 0.0 0.0 0.00 0.00 0.00 96 1010.5
20260510050050 47 282 0.0 0.0 0.00 0.00 0.00 96 1010.5
20260510044605 47 282 0.0 0.0 0.00 0.00 0.00 95 1010.3
20260510043045 48 282 0.0 0.0 0.00 0.00 0.00 95 1010.2
20260510041847 48 282 0.0 0.0 0.00 0.00 0.00 95 1010.3
20260510041541 48 282 0.0 0.0 0.00 0.00 0.00 94 1010.1
20260510041341 49 282 0.0 0.0 0.00 0.00 0.00 94 1010.3
20260510040853 49 282 0.0 0.0 0.00 0.00 0.00 95 1010.3
20260510040406 49 282 0.0 0.9 0.00 0.00 0.00 95 1010.3
20260510040055 49 282 0.0 0.9 0.00 0.00 0.00 95 1010.2
20260510035854 49 282 0.0 0.9 0.00 0.00 0.00 95 1010.3
20260510035346 49 282 0.0 0.0 0.00 0.00 0.00 95 1010.3
20260510034838 50 282 0.0 0.0 0.00 0.00 0.00 95 1010.0
20260510034550 49 282 0.0 1.7 0.00 0.00 0.00 95 1010.0
20260510034350 50 282 0.0 1.7 0.00 0.00 0.00 94 1010.3
20260510033843 50 282 0.0 0.0 0.00 0.00 0.00 94 1010.3
20260510033355 50 282 0.0 0.0 0.00 0.00 0.00 94 1010.3
20260510033048 49 282 0.0 0.0 0.00 0.00 0.00 94 1010.1
20260510032848 50 282 0.0 0.0 0.00 0.00 0.00 94 1010.3
20260510032344 50 282 0.0 0.0 0.00 0.00 0.00 94 1010.2
20260510031912 51 282 0.0 0.0 0.00 0.00 0.00 94 1010.2
20260510031547 50 282 0.0 0.0 0.00 0.00 0.00 93 1010.0
20260510031346 51 282 0.0 0.0 0.00 0.00 0.00 93 1010.2
20260510030839 51 282 0.0 0.0 0.00 0.00 0.00 93 1010.2
20260510030354 51 282 0.0 0.9 0.00 0.00 0.00 92 1010.2
20260510030007 50 282 0.0 0.9 0.00 0.00 0.00 92 1010.0
20260510025902 51 282 0.0 0.9 0.00 0.00 0.00 92 1010.1
20260510025355 51 282 0.0 0.9 0.00 0.00 0.00 92 1010.2
20260510024847 51 282 0.0 1.7 0.00 0.00 0.00 92 1010.2
20260510024542 51 282 0.0 1.7 0.00 0.00 0.00 92 1010.1
20260510024340 52 282 0.0 0.0 0.00 0.00 0.00 92 1010.2
20260510023852 52 282 0.0 0.0 0.00 0.00 0.00 92 1010.1
20260510023345 52 282 0.0 0.0 0.00 0.00 0.00 91 1010.2
20260510023059 51 282 0.0 0.0 0.00 0.00 0.00 91 1009.9
20260510022856 52 282 0.0 0.0 0.00 0.00 0.00 91 1010.1
20260510022349 52 282 0.0 0.0 0.00 0.00 0.00 91 1010.0
20260510021842 53 282 0.0 0.0 0.00 0.00 0.00 90 1009.9
20260510021556 52 282 0.0 0.0 0.00 0.00 0.00 90 1009.8
20260510021356 53 282 0.0 0.0 0.00 0.00 0.00 90 1009.9
20260510020847 53 282 0.0 0.0 0.00 0.00 0.00 89 1009.8
20260510020401 53 282 0.0 0.0 0.00 0.00 0.00 88 1009.8
20260510020051 53 282 0.0 0.0 0.00 0.00 0.00 88 1009.4
20260510015850 53 282 0.0 0.0 0.00 0.00 0.00 88 1009.6
20260510015341 54 282 0.0 0.0 0.00 0.00 0.00 88 1009.6
20260510014834 54 282 0.0 0.0 0.00 0.00 0.00 88 1009.6
20260510014509 54 282 0.0 0.0 0.00 0.00 0.00 87 1009.2
20260510014409 54 282 0.0 0.0 0.00 0.00 0.00 87 1009.4
20260510013840 54 282 0.0 0.0 0.00 0.00 0.00 86 1009.3
20260510013354 55 282 0.0 0.0 0.00 0.00 0.00 86 1009.1
20260510013007 54 282 0.0 0.0 0.00 0.00 0.00 85 1008.9
20260510012846 55 282 0.0 0.0 0.00 0.00 0.00 85 1009.1
20260510012338 55 282 0.0 0.0 0.00 0.00 0.00 85 1009.0
20260510011851 55 282 0.0 0.0 0.00 0.00 0.00 84 1008.9
20260510011552 55 282 0.0 0.0 0.00 0.00 0.00 84 1008.6
20260510011344 56 282 0.0 0.0 0.00 0.00 0.00 83 1008.8
20260510010856 56 282 0.0 0.0 0.00 0.00 0.00 83 1008.7
20260510010350 56 282 0.0 1.7 0.00 0.00 0.00 82 1008.6
20260510010050 56 282 0.0 1.7 0.00 0.00 0.00 81 1008.3
20260510005843 57 282 0.9 1.7 0.00 0.00 0.00 81 1008.5
20260510005354 57 282 284.2 284.2 0.00 0.00 0.00 81 1008.2
20260510004908 57 282 0.0 1.7 0.00 0.00 0.00 80 1008.3
20260510004539 57 282 0.0 1.7 0.00 0.00 0.00 79 1008.0
20260510004339 58 282 0.9 1.7 0.00 0.00 0.00 79 1008.2
20260510003851 58 282 0.0 0.0 0.00 0.00 0.00 78 1008.2
20260510003344 58 282 0.0 0.0 0.00 0.00 0.00 78 1008.1
20260510003037 58 282 0.0 0.0 0.00 0.00 0.00 77 1007.8
20260510002837 58 282 0.0 0.0 0.00 0.00 0.00 77 1008.0
20260510002348 59 282 0.0 0.0 0.00 0.00 0.00 76 1007.9
20260510001841 59 282 0.0 0.0 0.00 0.00 0.00 75 1008.0
20260510001556 59 282 0.0 0.0 0.00 0.00 0.00 74 1007.7
20260510001353 60 282 0.0 0.0 0.00 0.00 0.00 75 1007.9
20260510000847 60 282 0.0 0.0 0.00 0.00 0.00 73 1007.7
20260510000341 61 282 0.0 0.0 0.00 0.00 0.00 72 1007.7
20260510000030 60 282 0.0 0.0 0.00 0.00 0.00 72 1007.3
20260509235929 61 282 0.0 0.0 0.00 0.00 0.00 71 1007.7
20260509235337 61 282 0.0 0.0 0.00 0.00 0.00 72 1007.6
20260509234850 62 282 0.0 0.0 0.00 0.00 0.00 71 1007.6
20260509234547 62 282 0.0 0.0 0.00 0.00 0.00 69 1007.3
20260509234343 63 282 0.0 0.0 0.00 0.00 0.00 68 1007.6
20260509233915 63 282 0.0 0.0 0.00 0.00 0.00 68 1007.7
20260509233407 63 282 0.0 0.0 0.00 0.00 0.00 67 1007.7
20260509233039 63 282 0.0 0.0 0.00 0.00 0.00 68 1007.4
20260509232839 63 282 0.0 0.0 0.00 0.00 0.00 67 1007.7
20260509232351 64 282 0.0 0.0 0.00 0.00 0.00 66 1007.7
20260509231903 65 282 0.0 0.9 0.00 0.00 0.00 65 1007.7
20260509231556 65 282 0.0 1.7 0.00 0.00 0.00 64 1007.3
20260509231355 65 282 0.0 1.7 0.00 0.00 0.00 65 1007.6
20260509230846 66 282 0.9 1.7 0.00 0.00 0.00 63 1007.6
20260509230418 66 282 0.0 0.0 0.00 0.00 0.00 62 1007.7
20260509230047 66 282 0.0 0.0 0.00 0.00 0.00 62 1007.4
20260509225846 67 282 0.0 1.7 0.00 0.00 0.00 60 1007.7
20260509225339 67 282 0.0 1.7 0.00 0.00 0.00 58 1007.7
20260509224912 68 282 0.9 1.7 0.00 0.00 0.00 57 1007.8
20260509224545 67 282 0.0 1.7 0.00 0.00 0.00 55 1007.5
20260509224343 68 282 0.9 1.7 0.00 0.00 0.00 56 1007.9
20260509223856 69 175 0.0 1.7 0.00 0.00 0.00 58 1007.9
20260509223347 69 175 0.0 1.7 0.00 0.00 0.00 55 1007.9
20260509223041 69 175 0.9 1.7 0.00 0.00 0.00 54 1007.6
20260509222841 69 175 0.0 1.7 0.00 0.00 0.00 54 1007.9
20260509222433 69 175 0.9 1.7 0.00 0.00 0.00 55 1007.9
20260509221901 69 175 0.0 1.7 0.00 0.00 0.00 57 1007.8
20260509221552 68 175 0.0 1.7 0.00 0.00 0.00 57 1007.5
20260509221351 69 175 0.9 1.7 0.00 0.00 0.00 56 1007.9
20260509220844 69 316 0.9 2.6 0.00 0.00 0.00 58 1007.9
20260509220358 69 63 0.9 2.6 0.00 0.00 0.00 57 1007.9
20260509220047 68 349 1.7 2.6 0.00 0.00 0.00 57 1007.6
20260509215847 69 279 1.7 2.6 0.00 0.00 0.00 59 1007.9
20260509215441 69 81 0.9 3.5 0.00 0.00 0.00 57 1007.9
20260509214847 68 307 0.9 2.6 0.00 0.00 0.00 57 1007.9